Year,Month,Day,Hour,Minute,Value (Times are PST for windspeed in km/hr)
2020,11,14,00,00,0.00
2020,11,14,00,01,0.00
2020,11,14,00,02,0.00
2020,11,14,00,03,0.00
2020,11,14,00,04,0.00
2020,11,14,00,05,0.00
2020,11,14,00,06,0.00
2020,11,14,00,07,0.00
2020,11,14,00,08,0.00
2020,11,14,00,09,0.00
2020,11,14,00,10,0.00
2020,11,14,00,11,0.00
2020,11,14,00,12,0.00
2020,11,14,00,13,0.00
2020,11,14,00,14,0.00
2020,11,14,00,15,0.00
2020,11,14,00,16,0.00
2020,11,14,00,17,0.00
2020,11,14,00,18,0.00
2020,11,14,00,19,0.00
2020,11,14,00,20,0.00
2020,11,14,00,21,0.00
2020,11,14,00,22,0.00
2020,11,14,00,23,0.00
2020,11,14,00,24,0.00
2020,11,14,00,25,0.00
2020,11,14,00,26,0.00
2020,11,14,00,27,0.00
2020,11,14,00,28,0.00
2020,11,14,00,29,0.00
2020,11,14,00,30,0.00
2020,11,14,00,31,0.00
2020,11,14,00,32,0.00
2020,11,14,00,33,1.10
2020,11,14,00,34,5.10
2020,11,14,00,35,1.40
2020,11,14,00,36,0.00
2020,11,14,00,37,0.00
2020,11,14,00,38,0.00
2020,11,14,00,39,1.10
2020,11,14,00,40,3.00
2020,11,14,00,41,1.00
2020,11,14,00,42,0.00
2020,11,14,00,43,0.00
2020,11,14,00,44,2.60
2020,11,14,00,45,0.00
2020,11,14,00,46,0.00
2020,11,14,00,47,0.00
2020,11,14,00,48,0.00
2020,11,14,00,49,0.00
2020,11,14,00,50,0.00
2020,11,14,00,51,0.00
2020,11,14,00,52,0.00
2020,11,14,00,53,0.00
2020,11,14,00,54,0.00
2020,11,14,00,55,0.00
2020,11,14,00,56,0.00
2020,11,14,00,57,0.00
2020,11,14,00,58,0.00
2020,11,14,00,59,0.00
2020,11,14,01,00,0.00
2020,11,14,01,01,0.00
2020,11,14,01,02,0.00
2020,11,14,01,03,0.00
2020,11,14,01,04,0.00
2020,11,14,01,05,0.00
2020,11,14,01,06,0.00
2020,11,14,01,07,0.00
2020,11,14,01,08,0.00
2020,11,14,01,09,0.00
2020,11,14,01,10,0.00
2020,11,14,01,11,0.00
2020,11,14,01,12,0.00
2020,11,14,01,13,0.00
2020,11,14,01,14,0.00
2020,11,14,01,15,0.00
2020,11,14,01,16,0.00
2020,11,14,01,17,0.00
2020,11,14,01,18,0.00
2020,11,14,01,19,0.00
2020,11,14,01,20,0.00
2020,11,14,01,21,0.00
2020,11,14,01,22,0.00
2020,11,14,01,23,0.00
2020,11,14,01,24,0.00
2020,11,14,01,25,0.00
2020,11,14,01,26,0.00
2020,11,14,01,27,0.00
2020,11,14,01,28,0.00
2020,11,14,01,29,0.00
2020,11,14,01,30,0.00
2020,11,14,01,31,0.00
2020,11,14,01,32,0.00
2020,11,14,01,33,0.00
2020,11,14,01,34,0.00
2020,11,14,01,35,0.00
2020,11,14,01,36,0.00
2020,11,14,01,37,0.00
2020,11,14,01,38,0.00
2020,11,14,01,39,0.00
2020,11,14,01,40,0.00
2020,11,14,01,41,0.00
2020,11,14,01,42,0.00
2020,11,14,01,43,0.00
2020,11,14,01,44,0.00
2020,11,14,01,45,0.00
2020,11,14,01,46,0.00
2020,11,14,01,47,0.00
2020,11,14,01,48,0.00
2020,11,14,01,49,0.00
2020,11,14,01,50,0.00
2020,11,14,01,51,0.00
2020,11,14,01,52,0.00
2020,11,14,01,53,0.00
2020,11,14,01,54,0.00
2020,11,14,01,55,0.00
2020,11,14,01,56,0.00
2020,11,14,01,57,0.00
2020,11,14,01,58,0.00
2020,11,14,01,59,0.00
2020,11,14,02,00,0.00
2020,11,14,02,01,0.00
2020,11,14,02,02,0.00
2020,11,14,02,03,0.00
2020,11,14,02,04,0.00
2020,11,14,02,05,0.00
2020,11,14,02,06,0.00
2020,11,14,02,07,0.00
2020,11,14,02,08,0.00
2020,11,14,02,09,0.00
2020,11,14,02,10,0.00
2020,11,14,02,11,0.00
2020,11,14,02,12,0.00
2020,11,14,02,13,0.00
2020,11,14,02,14,0.00
2020,11,14,02,15,0.00
2020,11,14,02,16,0.00
2020,11,14,02,17,0.00
2020,11,14,02,18,0.00
2020,11,14,02,19,0.00
2020,11,14,02,20,0.00
2020,11,14,02,21,0.00
2020,11,14,02,22,0.00
2020,11,14,02,23,0.00
2020,11,14,02,24,0.00
2020,11,14,02,25,0.00
2020,11,14,02,26,0.00
2020,11,14,02,27,0.00
2020,11,14,02,28,0.00
2020,11,14,02,29,0.00
2020,11,14,02,30,0.00
2020,11,14,02,31,0.00
2020,11,14,02,32,0.00
2020,11,14,02,33,0.00
2020,11,14,02,34,0.00
2020,11,14,02,35,0.00
2020,11,14,02,36,0.00
2020,11,14,02,37,0.00
2020,11,14,02,38,0.00
2020,11,14,02,39,0.00
2020,11,14,02,40,0.00
2020,11,14,02,41,0.00
2020,11,14,02,42,0.00
2020,11,14,02,43,0.00
2020,11,14,02,44,0.00
2020,11,14,02,45,0.00
2020,11,14,02,46,0.00
2020,11,14,02,47,0.00
2020,11,14,02,48,0.00
2020,11,14,02,49,0.00
2020,11,14,02,50,0.00
2020,11,14,02,51,0.00
2020,11,14,02,52,0.00
2020,11,14,02,53,0.00
2020,11,14,02,54,0.00
2020,11,14,02,55,0.00
2020,11,14,02,56,0.00
2020,11,14,02,57,0.00
2020,11,14,02,58,0.00
2020,11,14,02,59,0.00
2020,11,14,03,00,0.00
2020,11,14,03,01,0.00
2020,11,14,03,02,0.00
2020,11,14,03,03,0.00
2020,11,14,03,04,0.00
2020,11,14,03,05,0.00
2020,11,14,03,06,0.00
2020,11,14,03,07,0.00
2020,11,14,03,08,0.00
2020,11,14,03,09,0.00
2020,11,14,03,10,0.00
2020,11,14,03,11,0.00
2020,11,14,03,12,0.00
2020,11,14,03,13,0.00
2020,11,14,03,14,0.00
2020,11,14,03,15,0.00
2020,11,14,03,16,0.00
2020,11,14,03,17,0.00
2020,11,14,03,18,0.00
2020,11,14,03,19,0.00
2020,11,14,03,20,0.00
2020,11,14,03,21,0.00
2020,11,14,03,22,0.00
2020,11,14,03,23,0.00
2020,11,14,03,24,0.00
2020,11,14,03,25,0.00
2020,11,14,03,26,0.00
2020,11,14,03,27,0.00
2020,11,14,03,28,0.00
2020,11,14,03,29,0.00
2020,11,14,03,30,0.00
2020,11,14,03,31,0.00
2020,11,14,03,32,0.00
2020,11,14,03,33,0.00
2020,11,14,03,34,0.00
2020,11,14,03,35,0.00
2020,11,14,03,36,0.00
2020,11,14,03,37,0.00
2020,11,14,03,38,0.00
2020,11,14,03,39,0.00
2020,11,14,03,40,0.00
2020,11,14,03,41,0.00
2020,11,14,03,42,0.00
2020,11,14,03,43,0.00
2020,11,14,03,44,0.00
2020,11,14,03,45,0.00
2020,11,14,03,46,0.00
2020,11,14,03,47,0.00
2020,11,14,03,48,0.00
2020,11,14,03,49,0.00
2020,11,14,03,50,0.00
2020,11,14,03,51,0.00
2020,11,14,03,52,0.00
2020,11,14,03,53,0.00
2020,11,14,03,54,0.00
2020,11,14,03,55,0.00
2020,11,14,03,56,0.00
2020,11,14,03,57,0.00
2020,11,14,03,58,0.00
2020,11,14,03,59,0.00
2020,11,14,04,00,0.00
2020,11,14,04,01,0.00
2020,11,14,04,02,0.00
2020,11,14,04,03,0.00
2020,11,14,04,04,0.00
2020,11,14,04,05,0.00
2020,11,14,04,06,0.00
2020,11,14,04,07,0.00
2020,11,14,04,08,0.00
2020,11,14,04,09,0.00
2020,11,14,04,10,0.00
2020,11,14,04,11,0.00
2020,11,14,04,12,0.00
2020,11,14,04,13,0.00
2020,11,14,04,14,0.00
2020,11,14,04,15,0.00
2020,11,14,04,16,0.00
2020,11,14,04,17,0.00
2020,11,14,04,18,0.00
2020,11,14,04,19,0.00
2020,11,14,04,20,0.00
2020,11,14,04,21,0.00
2020,11,14,04,22,0.00
2020,11,14,04,23,0.00
2020,11,14,04,24,0.00
2020,11,14,04,25,0.00
2020,11,14,04,26,0.00
2020,11,14,04,27,0.00
2020,11,14,04,28,0.00
2020,11,14,04,29,0.00
2020,11,14,04,30,0.00
2020,11,14,04,31,0.00
2020,11,14,04,32,0.00
2020,11,14,04,33,0.00
2020,11,14,04,34,0.00
2020,11,14,04,35,0.00
2020,11,14,04,36,0.00
2020,11,14,04,37,0.00
2020,11,14,04,38,0.00
2020,11,14,04,39,0.00
2020,11,14,04,40,0.00
2020,11,14,04,41,0.00
2020,11,14,04,42,0.00
2020,11,14,04,43,0.00
2020,11,14,04,44,0.00
2020,11,14,04,45,0.00
2020,11,14,04,46,0.00
2020,11,14,04,47,0.00
2020,11,14,04,48,0.00
2020,11,14,04,49,0.00
2020,11,14,04,50,0.00
2020,11,14,04,51,0.00
2020,11,14,04,52,0.00
2020,11,14,04,53,0.00
2020,11,14,04,54,0.00
2020,11,14,04,55,0.00
2020,11,14,04,56,0.00
2020,11,14,04,57,0.00
2020,11,14,04,58,0.00
2020,11,14,04,59,0.00
2020,11,14,05,00,0.00
2020,11,14,05,01,0.00
2020,11,14,05,02,0.00
2020,11,14,05,03,0.00
2020,11,14,05,04,0.00
2020,11,14,05,05,0.00
2020,11,14,05,06,0.00
2020,11,14,05,07,0.00
2020,11,14,05,08,0.00
2020,11,14,05,09,0.00
2020,11,14,05,10,0.00
2020,11,14,05,11,0.00
2020,11,14,05,12,0.00
2020,11,14,05,13,0.00
2020,11,14,05,14,0.00
2020,11,14,05,15,0.00
2020,11,14,05,16,0.00
2020,11,14,05,17,0.00
2020,11,14,05,18,0.00
2020,11,14,05,19,0.00
2020,11,14,05,20,0.00
2020,11,14,05,21,0.00
2020,11,14,05,22,0.00
2020,11,14,05,23,0.00
2020,11,14,05,24,0.00
2020,11,14,05,25,0.00
2020,11,14,05,26,0.00
2020,11,14,05,27,0.00
2020,11,14,05,28,0.00
2020,11,14,05,29,0.00
2020,11,14,05,30,0.00
2020,11,14,05,31,0.00
2020,11,14,05,32,0.00
2020,11,14,05,33,0.00
2020,11,14,05,34,0.00
2020,11,14,05,35,0.00
2020,11,14,05,36,0.00
2020,11,14,05,37,0.00
2020,11,14,05,38,0.00
2020,11,14,05,39,0.00
2020,11,14,05,40,0.00
2020,11,14,05,41,0.00
2020,11,14,05,42,0.00
2020,11,14,05,43,0.00
2020,11,14,05,44,0.00
2020,11,14,05,45,0.00
2020,11,14,05,46,0.00
2020,11,14,05,47,0.00
2020,11,14,05,48,0.00
2020,11,14,05,49,0.00
2020,11,14,05,50,0.00
2020,11,14,05,51,0.00
2020,11,14,05,52,0.00
2020,11,14,05,53,0.00
2020,11,14,05,54,0.00
2020,11,14,05,55,0.00
2020,11,14,05,56,0.00
2020,11,14,05,57,0.00
2020,11,14,08,01,0.00
2020,11,14,08,02,0.00
2020,11,14,08,03,0.00
2020,11,14,08,04,0.00
2020,11,14,08,05,0.00
2020,11,14,08,06,0.00
2020,11,14,08,07,0.00
2020,11,14,08,08,0.00
2020,11,14,08,09,0.00
2020,11,14,08,10,0.00
2020,11,14,08,11,0.00
2020,11,14,08,12,0.00
2020,11,14,08,13,0.00
2020,11,14,08,14,0.00
2020,11,14,08,15,0.00
2020,11,14,08,16,0.00
2020,11,14,08,17,0.00
2020,11,14,08,18,0.00
2020,11,14,08,19,0.00
2020,11,14,08,20,0.00
2020,11,14,08,21,0.00
2020,11,14,08,22,0.00
2020,11,14,08,23,0.00
2020,11,14,08,24,0.00
2020,11,14,08,25,0.00
2020,11,14,08,26,0.00
2020,11,14,08,27,0.00
2020,11,14,08,28,0.00
2020,11,14,08,29,0.00
2020,11,14,08,30,0.00
2020,11,14,08,31,0.00
2020,11,14,08,32,0.00
2020,11,14,08,33,0.00
2020,11,14,08,34,0.00
2020,11,14,08,35,0.00
2020,11,14,08,36,0.00
2020,11,14,08,37,0.00
2020,11,14,08,38,0.00
2020,11,14,08,39,0.00
2020,11,14,08,40,0.00
2020,11,14,08,41,0.00
2020,11,14,08,42,0.00
2020,11,14,08,43,0.00
2020,11,14,08,44,0.00
2020,11,14,08,45,0.00
2020,11,14,08,46,0.00
2020,11,14,08,47,0.00
2020,11,14,08,48,0.00
2020,11,14,08,49,0.00
2020,11,14,08,50,0.00
2020,11,14,08,51,0.00
2020,11,14,08,52,0.00
2020,11,14,08,53,0.00
2020,11,14,08,54,0.00
2020,11,14,08,55,0.00
2020,11,14,08,56,0.00
2020,11,14,08,57,0.00
2020,11,14,08,58,0.00
2020,11,14,08,59,0.00
2020,11,14,09,00,0.00
2020,11,14,09,01,0.00
2020,11,14,09,02,0.00
2020,11,14,09,03,0.00
2020,11,14,09,04,0.00
2020,11,14,09,05,0.00
2020,11,14,09,06,0.00
2020,11,14,09,07,0.00
2020,11,14,09,08,0.00
2020,11,14,09,09,0.00
2020,11,14,09,10,0.00
2020,11,14,09,11,0.00
2020,11,14,09,12,0.00
2020,11,14,09,13,0.00
2020,11,14,09,14,0.00
2020,11,14,09,15,0.00
2020,11,14,09,16,0.00
2020,11,14,09,17,0.00
2020,11,14,09,18,0.00
2020,11,14,09,19,0.00
2020,11,14,09,20,0.00
2020,11,14,09,21,0.00
2020,11,14,09,22,0.00
2020,11,14,09,23,0.00
2020,11,14,09,24,0.00
2020,11,14,09,25,0.00
2020,11,14,09,26,0.00
2020,11,14,09,27,0.00
2020,11,14,09,28,0.00
2020,11,14,09,29,0.00
2020,11,14,09,30,0.00
2020,11,14,09,31,0.00
2020,11,14,09,32,0.00
2020,11,14,09,33,0.00
2020,11,14,09,34,0.00
2020,11,14,09,35,0.00
2020,11,14,09,36,0.00
2020,11,14,09,37,0.00
2020,11,14,09,38,0.00
2020,11,14,09,39,0.00
2020,11,14,09,40,0.00
2020,11,14,09,41,0.00
2020,11,14,09,42,0.00
2020,11,14,09,43,0.00
2020,11,14,09,44,0.00
2020,11,14,09,45,0.00
2020,11,14,09,46,0.00
2020,11,14,09,47,0.00
2020,11,14,09,48,0.00
2020,11,14,09,49,0.00
2020,11,14,09,50,0.00
2020,11,14,09,51,0.00
2020,11,14,09,52,0.00
2020,11,14,09,53,0.00
2020,11,14,09,54,0.00
2020,11,14,09,55,0.00
2020,11,14,09,56,0.00
2020,11,14,09,57,0.00
2020,11,14,09,58,0.00
2020,11,14,09,59,0.00
2020,11,14,10,00,0.00
2020,11,14,10,01,0.00
2020,11,14,10,02,0.00
2020,11,14,10,03,0.00
2020,11,14,10,04,0.00
2020,11,14,10,05,0.00
2020,11,14,10,06,0.00
2020,11,14,10,07,0.00
2020,11,14,10,08,0.00
2020,11,14,10,09,0.00
2020,11,14,10,10,0.00
2020,11,14,10,11,0.00
2020,11,14,10,12,0.00
2020,11,14,10,13,0.00
2020,11,14,10,14,0.00
2020,11,14,10,15,0.00
2020,11,14,10,16,0.00
2020,11,14,10,17,0.00
2020,11,14,10,18,0.00
2020,11,14,10,19,0.00
2020,11,14,10,20,0.00
2020,11,14,10,21,0.00
2020,11,14,10,22,0.00
2020,11,14,10,23,0.00
2020,11,14,10,24,0.00
2020,11,14,10,25,0.00
2020,11,14,10,26,0.00
2020,11,14,10,27,0.00
2020,11,14,10,28,0.00
2020,11,14,10,29,0.00
2020,11,14,10,30,0.00
2020,11,14,10,31,0.00
2020,11,14,10,32,0.00
2020,11,14,10,33,0.00
2020,11,14,10,34,0.00
2020,11,14,10,35,0.00
2020,11,14,10,36,0.00
2020,11,14,10,37,0.00
2020,11,14,10,38,0.00
2020,11,14,10,39,0.00
2020,11,14,10,40,0.00
2020,11,14,10,41,3.80
2020,11,14,10,42,2.60
2020,11,14,10,43,4.70
2020,11,14,10,44,9.80
2020,11,14,10,45,8.60
2020,11,14,10,46,6.80
2020,11,14,10,47,4.10
2020,11,14,10,48,0.00
2020,11,14,10,49,2.30
2020,11,14,10,50,2.10
2020,11,14,10,51,3.50
2020,11,14,10,52,5.50
2020,11,14,10,53,2.20
2020,11,14,10,54,0.90
2020,11,14,10,55,6.90
2020,11,14,10,56,6.00
2020,11,14,10,57,0.30
2020,11,14,10,58,0.00
2020,11,14,10,59,0.00
2020,11,14,11,00,0.00
2020,11,14,11,01,0.00
2020,11,14,11,02,0.00
2020,11,14,11,03,0.00
2020,11,14,11,04,0.00
2020,11,14,11,05,0.00
2020,11,14,11,06,0.00
2020,11,14,11,07,0.00
2020,11,14,11,08,0.00
2020,11,14,11,09,0.00
2020,11,14,11,10,0.00
2020,11,14,11,11,0.00
2020,11,14,11,12,0.00
2020,11,14,11,13,0.00
2020,11,14,11,14,0.00
2020,11,14,11,15,0.00
2020,11,14,11,16,1.60
2020,11,14,11,17,2.30
2020,11,14,11,18,0.00
2020,11,14,11,19,0.00
2020,11,14,11,20,1.90
2020,11,14,11,21,0.60
2020,11,14,11,22,0.00
2020,11,14,11,23,0.00
2020,11,14,11,24,0.00
2020,11,14,11,25,0.00
2020,11,14,11,26,0.00
2020,11,14,11,27,0.00
2020,11,14,11,28,0.00
2020,11,14,11,29,0.00
2020,11,14,11,30,0.00
2020,11,14,11,31,0.00
2020,11,14,11,32,0.00
2020,11,14,11,33,0.00
2020,11,14,11,34,0.00
2020,11,14,11,35,0.00
2020,11,14,11,36,0.00
2020,11,14,11,37,2.10
2020,11,14,11,38,6.50
2020,11,14,11,39,8.40
2020,11,14,11,40,6.70
2020,11,14,11,41,7.40
2020,11,14,11,42,5.90
2020,11,14,11,43,2.00
2020,11,14,11,44,0.10
2020,11,14,11,45,1.80
2020,11,14,11,46,0.00
2020,11,14,11,47,0.00
2020,11,14,11,48,0.00
2020,11,14,11,49,2.60
2020,11,14,11,50,6.70
2020,11,14,11,51,4.10
2020,11,14,11,52,0.00
2020,11,14,11,53,0.00
2020,11,14,11,54,0.00
2020,11,14,11,55,0.00
2020,11,14,11,56,0.00
2020,11,14,11,57,0.00
2020,11,14,11,58,0.20
2020,11,14,11,59,2.60
2020,11,14,12,00,0.00
2020,11,14,12,01,0.00
2020,11,14,12,02,0.00
2020,11,14,12,03,0.00
2020,11,14,12,04,0.00
2020,11,14,12,05,2.40
2020,11,14,12,06,2.40
2020,11,14,12,07,1.00
2020,11,14,12,08,0.00
2020,11,14,12,09,3.70
2020,11,14,12,10,2.20
2020,11,14,12,11,0.00
2020,11,14,12,12,0.00
2020,11,14,12,13,0.00
2020,11,14,12,14,0.00
2020,11,14,12,15,0.00
2020,11,14,12,16,3.90
2020,11,14,12,17,2.20
2020,11,14,12,18,0.00
2020,11,14,12,19,0.00
2020,11,14,12,20,3.50
2020,11,14,12,21,0.00
2020,11,14,12,22,0.00
2020,11,14,12,23,0.00
2020,11,14,12,24,0.00
2020,11,14,12,25,0.00
2020,11,14,12,26,0.00
2020,11,14,12,27,0.00
2020,11,14,12,28,0.00
2020,11,14,12,29,0.00
2020,11,14,12,30,0.00
2020,11,14,12,31,0.00
2020,11,14,12,32,0.00
2020,11,14,12,33,0.00
2020,11,14,12,34,0.00
2020,11,14,12,35,0.00
2020,11,14,12,36,0.00
2020,11,14,12,37,0.00
2020,11,14,12,38,0.00
2020,11,14,12,39,0.00
2020,11,14,12,40,0.00
2020,11,14,12,41,2.50
2020,11,14,12,42,0.50
2020,11,14,12,43,0.00
2020,11,14,12,44,0.00
2020,11,14,12,45,0.00
2020,11,14,12,46,0.00
2020,11,14,12,47,0.00
2020,11,14,12,48,0.00
2020,11,14,12,49,0.00
2020,11,14,12,50,0.00
2020,11,14,12,51,0.00
2020,11,14,12,52,0.00
2020,11,14,12,53,0.00
2020,11,14,12,54,0.00
2020,11,14,12,55,0.00
2020,11,14,12,56,4.70
2020,11,14,12,57,0.00
2020,11,14,12,58,0.00
2020,11,14,12,59,0.00
2020,11,14,13,00,0.00
2020,11,14,13,01,0.00
2020,11,14,13,02,0.00
2020,11,14,13,03,0.00
2020,11,14,13,04,0.00
2020,11,14,13,05,0.00
2020,11,14,13,06,0.00
2020,11,14,13,07,5.80
2020,11,14,13,08,10.50
2020,11,14,13,09,9.40
2020,11,14,13,10,9.10
2020,11,14,13,11,10.90
2020,11,14,13,12,11.80
2020,11,14,13,13,13.70
2020,11,14,13,14,10.60
2020,11,14,13,15,10.60
2020,11,14,13,16,9.30
2020,11,14,13,17,8.30
2020,11,14,13,18,8.40
2020,11,14,13,19,8.40
2020,11,14,13,20,8.60
2020,11,14,13,21,8.50
2020,11,14,13,22,12.50
2020,11,14,13,23,11.40
2020,11,14,13,24,8.30
2020,11,14,13,25,13.80
2020,11,14,13,26,9.30
2020,11,14,13,27,9.10
2020,11,14,13,28,7.70
2020,11,14,13,29,11.70
2020,11,14,13,30,7.80
2020,11,14,13,31,6.00
2020,11,14,13,32,5.50
2020,11,14,13,33,2.80
2020,11,14,13,34,0.00
2020,11,14,13,35,0.00
2020,11,14,13,36,7.20
2020,11,14,13,37,5.30
2020,11,14,13,38,7.30
2020,11,14,13,39,6.70
2020,11,14,13,40,9.30
2020,11,14,13,41,8.50
2020,11,14,13,42,7.00
2020,11,14,13,43,2.30
2020,11,14,13,44,0.00
2020,11,14,13,45,0.00
2020,11,14,13,46,0.00
2020,11,14,13,47,0.00
2020,11,14,13,48,6.40
2020,11,14,13,49,2.40
2020,11,14,13,50,2.50
2020,11,14,13,51,9.80
2020,11,14,13,52,11.30
2020,11,14,13,53,5.20
2020,11,14,13,54,12.00
2020,11,14,13,55,11.80
2020,11,14,13,56,8.50
2020,11,14,13,57,12.60
2020,11,14,13,58,10.90
2020,11,14,13,59,9.40
2020,11,14,14,00,15.70
2020,11,14,14,01,9.10
2020,11,14,14,02,14.30
2020,11,14,14,03,10.00
2020,11,14,14,04,15.80
2020,11,14,14,05,9.20
2020,11,14,14,06,12.20
2020,11,14,14,07,8.90
2020,11,14,14,08,9.00
2020,11,14,14,09,15.50
2020,11,14,14,10,10.90
2020,11,14,14,11,9.30
2020,11,14,14,12,13.20
2020,11,14,14,13,7.10
2020,11,14,14,14,13.90
2020,11,14,14,15,16.90
2020,11,14,14,16,15.40
2020,11,14,14,17,10.60
2020,11,14,14,18,11.50
2020,11,14,14,19,17.10
2020,11,14,14,20,10.50
2020,11,14,14,21,10.50
2020,11,14,14,22,14.40
2020,11,14,14,23,14.20
2020,11,14,14,24,13.20
2020,11,14,14,25,11.80
2020,11,14,14,26,16.40
2020,11,14,14,27,10.40
2020,11,14,14,28,10.40
2020,11,14,14,29,6.20
2020,11,14,14,30,8.00
2020,11,14,14,31,10.80
2020,11,14,14,32,12.20
2020,11,14,14,33,13.80
2020,11,14,14,34,22.50
2020,11,14,14,35,16.60
2020,11,14,14,36,12.80
2020,11,14,14,37,11.30
2020,11,14,14,38,12.10
2020,11,14,14,39,10.30
2020,11,14,14,40,13.60
2020,11,14,14,41,17.40
2020,11,14,14,42,9.40
2020,11,14,14,43,14.90
2020,11,14,14,44,11.70
2020,11,14,14,45,13.80
2020,11,14,14,46,10.80
2020,11,14,14,47,12.50
2020,11,14,14,48,12.70
2020,11,14,14,49,12.10
2020,11,14,14,50,15.70
2020,11,14,14,51,10.90
2020,11,14,14,52,16.10
2020,11,14,14,53,17.10
2020,11,14,14,54,13.80
2020,11,14,14,55,14.50
2020,11,14,14,56,17.30
2020,11,14,14,57,18.40
2020,11,14,14,58,17.60
2020,11,14,14,59,17.80
2020,11,14,15,00,14.40
2020,11,14,15,01,11.70
2020,11,14,15,02,17.10
2020,11,14,15,03,15.10
2020,11,14,15,04,11.90
2020,11,14,15,05,20.60
2020,11,14,15,06,19.20
2020,11,14,15,07,11.50
2020,11,14,15,08,15.00
2020,11,14,15,09,11.80
2020,11,14,15,10,14.70
2020,11,14,15,11,16.90
2020,11,14,15,12,13.90
2020,11,14,15,13,11.60
2020,11,14,15,14,17.20
2020,11,14,15,15,17.00
2020,11,14,15,16,12.00
2020,11,14,15,17,14.40
2020,11,14,15,18,13.30
2020,11,14,15,19,12.60
2020,11,14,15,20,10.30
2020,11,14,15,21,10.70
2020,11,14,15,22,14.10
2020,11,14,15,23,16.30
2020,11,14,15,24,8.20
2020,11,14,15,25,9.90
2020,11,14,15,26,13.00
2020,11,14,15,27,15.30
2020,11,14,15,28,11.10
2020,11,14,15,29,14.90
2020,11,14,15,30,15.50
2020,11,14,15,31,12.70
2020,11,14,15,32,20.80
2020,11,14,15,33,12.70
2020,11,14,15,34,14.40
2020,11,14,15,35,13.40
2020,11,14,15,36,12.20
2020,11,14,15,37,11.70
2020,11,14,15,38,14.30
2020,11,14,15,39,17.40
2020,11,14,15,40,17.00
2020,11,14,15,41,14.10
2020,11,14,15,42,17.90
2020,11,14,15,43,14.40
2020,11,14,15,44,10.90
2020,11,14,15,45,16.50
2020,11,14,15,46,14.60
2020,11,14,15,47,12.20
2020,11,14,15,48,11.00
2020,11,14,15,49,11.50
2020,11,14,15,50,15.50
2020,11,14,15,51,10.00
2020,11,14,15,52,8.40
2020,11,14,15,53,9.10
2020,11,14,15,54,9.20
2020,11,14,15,55,10.20
2020,11,14,15,56,6.90
2020,11,14,15,57,9.80
2020,11,14,15,58,9.10
2020,11,14,15,59,9.80
2020,11,14,16,00,15.60
2020,11,14,16,01,15.40
2020,11,14,16,02,14.40
2020,11,14,16,03,12.40
2020,11,14,16,04,14.20
2020,11,14,16,05,11.30
2020,11,14,16,06,9.00
2020,11,14,16,07,14.70
2020,11,14,16,08,16.90
2020,11,14,16,09,12.90
2020,11,14,16,10,14.50
2020,11,14,16,11,11.70
2020,11,14,16,12,16.40
2020,11,14,16,13,16.60
2020,11,14,16,14,12.40
2020,11,14,16,15,11.30
2020,11,14,16,16,16.40
2020,11,14,16,17,15.30
2020,11,14,16,18,11.70
2020,11,14,16,19,9.20
2020,11,14,16,20,13.30
2020,11,14,16,21,7.70
2020,11,14,16,22,9.40
2020,11,14,16,23,14.20
2020,11,14,16,24,14.80
2020,11,14,16,25,16.40
2020,11,14,16,26,17.40
2020,11,14,16,27,17.30
2020,11,14,16,28,12.10
2020,11,14,16,29,13.70
2020,11,14,16,30,18.30
2020,11,14,16,31,13.80
2020,11,14,16,32,18.00
2020,11,14,16,33,21.30
2020,11,14,16,34,17.50
2020,11,14,16,35,19.10
2020,11,14,16,36,20.50
2020,11,14,16,37,18.80
2020,11,14,16,38,15.00
2020,11,14,16,39,16.70
2020,11,14,16,40,14.60
2020,11,14,16,41,17.90
2020,11,14,16,42,15.60
2020,11,14,16,43,14.70
2020,11,14,16,44,21.20
2020,11,14,16,45,15.60
2020,11,14,16,46,15.60
2020,11,14,16,47,16.90
2020,11,14,16,48,22.40
2020,11,14,16,49,16.70
2020,11,14,16,50,18.90
2020,11,14,16,51,19.60
2020,11,14,16,52,18.20
2020,11,14,16,53,20.80
2020,11,14,16,54,17.30
2020,11,14,16,55,18.70
2020,11,14,16,56,21.40
2020,11,14,16,57,17.20
2020,11,14,16,58,19.70
2020,11,14,16,59,20.00
2020,11,14,17,00,23.20
2020,11,14,17,01,27.20
2020,11,14,17,02,19.70
2020,11,14,17,03,26.50
2020,11,14,17,04,17.40
2020,11,14,17,05,15.00
2020,11,14,17,06,17.00
2020,11,14,17,07,14.60
2020,11,14,17,08,21.90
2020,11,14,17,09,15.50
2020,11,14,17,10,15.90
2020,11,14,17,11,13.20
2020,11,14,17,12,13.80
2020,11,14,17,13,14.20
2020,11,14,17,14,11.40
2020,11,14,17,15,24.70
2020,11,14,17,16,23.10
2020,11,14,17,17,19.20
2020,11,14,17,18,18.90
2020,11,14,17,19,11.70
2020,11,14,17,20,20.00
2020,11,14,17,21,13.20
2020,11,14,17,22,13.20
2020,11,14,17,23,20.20
2020,11,14,17,24,19.20
2020,11,14,17,25,22.30
2020,11,14,17,26,22.50
2020,11,14,17,27,23.50
2020,11,14,17,28,22.40
2020,11,14,17,29,19.30
2020,11,14,17,30,17.60
2020,11,14,17,31,20.20
2020,11,14,17,32,19.10
2020,11,14,17,33,19.00
2020,11,14,17,34,14.90
2020,11,14,17,35,18.40
2020,11,14,17,36,21.60
2020,11,14,17,37,13.90
2020,11,14,17,38,16.20
2020,11,14,17,39,17.20
2020,11,14,17,40,18.50
2020,11,14,17,41,19.00
2020,11,14,17,42,21.10
2020,11,14,17,43,15.00
2020,11,14,17,44,18.20
2020,11,14,17,45,15.80
2020,11,14,17,46,20.20
2020,11,14,17,47,20.00
2020,11,14,17,48,21.20
2020,11,14,17,49,18.90
2020,11,14,17,50,16.30
2020,11,14,17,51,18.30
2020,11,14,17,52,17.50
2020,11,14,17,53,13.50
2020,11,14,17,54,25.40
2020,11,14,17,55,14.80
2020,11,14,17,56,15.10
2020,11,14,17,57,20.80
2020,11,14,17,58,21.00
2020,11,14,17,59,22.30
2020,11,14,18,00,20.60
2020,11,14,18,01,21.30
2020,11,14,18,02,16.50
2020,11,14,18,03,13.80
2020,11,14,18,04,11.80
2020,11,14,18,05,23.80
2020,11,14,18,06,24.70
2020,11,14,18,07,17.10
2020,11,14,18,08,20.10
2020,11,14,18,09,16.90
2020,11,14,18,10,11.80
2020,11,14,18,11,17.30
2020,11,14,18,12,23.70
2020,11,14,18,13,18.40
2020,11,14,18,14,22.40
2020,11,14,18,15,22.60
2020,11,14,18,16,30.50
2020,11,14,18,17,27.50
2020,11,14,18,18,16.70
2020,11,14,18,19,20.50
2020,11,14,18,20,23.10
2020,11,14,18,21,26.00
2020,11,14,18,22,25.00
2020,11,14,18,23,17.60
2020,11,14,18,24,23.80
2020,11,14,18,25,20.70
2020,11,14,18,26,32.40
2020,11,14,18,27,32.00
2020,11,14,18,28,24.80
2020,11,14,18,29,19.70
2020,11,14,18,30,19.00
2020,11,14,18,31,24.30
2020,11,14,18,32,21.20
2020,11,14,18,33,14.20
2020,11,14,18,34,17.10
2020,11,14,18,35,22.90
2020,11,14,18,36,22.20
2020,11,14,18,37,18.20
2020,11,14,18,38,22.40
2020,11,14,18,39,23.20
2020,11,14,18,40,28.00
2020,11,14,18,41,25.20
2020,11,14,18,42,21.10
2020,11,14,18,43,19.50
2020,11,14,18,44,22.60
2020,11,14,18,45,27.30
2020,11,14,18,46,37.60
2020,11,14,18,47,27.10
2020,11,14,18,48,31.40
2020,11,14,18,49,21.60
2020,11,14,18,50,24.10
2020,11,14,18,51,36.70
2020,11,14,18,52,44.80
2020,11,14,18,53,33.60
2020,11,14,18,54,26.70
2020,11,14,18,55,30.30
2020,11,14,18,56,23.90
2020,11,14,18,57,32.70
2020,11,14,18,58,32.90
2020,11,14,18,59,25.30
2020,11,14,19,00,30.30
2020,11,14,19,01,22.70
2020,11,14,19,02,36.20
2020,11,14,19,03,25.70
2020,11,14,19,04,39.80
2020,11,14,19,05,31.00
2020,11,14,19,06,31.30
2020,11,14,19,07,32.00
2020,11,14,19,08,35.20
2020,11,14,19,09,43.80
2020,11,14,19,10,40.60
2020,11,14,19,11,30.10
2020,11,14,19,12,28.10
2020,11,14,19,13,29.20
2020,11,14,19,14,27.40
2020,11,14,19,15,26.30
2020,11,14,19,16,30.60
2020,11,14,19,17,25.60
2020,11,14,19,18,25.50
2020,11,14,19,19,21.80
2020,11,14,19,20,30.10
2020,11,14,19,21,22.80
2020,11,14,19,22,23.80
2020,11,14,19,23,20.80
2020,11,14,19,24,24.70
2020,11,14,19,25,28.00
2020,11,14,19,26,28.70
2020,11,14,19,27,31.10
2020,11,14,19,28,27.20
2020,11,14,19,29,30.40
2020,11,14,19,30,36.50
2020,11,14,19,31,22.10
2020,11,14,19,32,21.40
2020,11,14,19,33,29.30
2020,11,14,19,34,28.20
2020,11,14,19,35,25.20
2020,11,14,19,36,30.70
2020,11,14,19,37,24.60
2020,11,14,19,38,22.50
2020,11,14,19,39,21.40
2020,11,14,19,40,23.20
2020,11,14,19,41,23.80
2020,11,14,19,42,30.10
2020,11,14,19,43,26.60
2020,11,14,19,44,27.40
2020,11,14,19,45,31.60
2020,11,14,19,46,24.50
2020,11,14,19,47,23.10
2020,11,14,19,48,27.50
2020,11,14,19,49,28.70
2020,11,14,19,50,32.40
2020,11,14,19,51,23.00
2020,11,14,19,52,25.30
2020,11,14,19,53,24.90